Weather History for The Villages, FL

Change the Weather History Date:

Saturday, July 13, 2013

  Actual Average (KLEE) Record (KLEE)
Temperature  
Mean Temperature 79 °F -  
Max Temperature 87 °F 91 °F 96 °F (1980)
Min Temperature 71 °F 71 °F 65 °F (1967)
Cooling Degree Days 14    
Growing Degree Days 29 (Base 50)    
Moisture  
Dew Point 72 °F    
Average Humidity 88    
Maximum Humidity 100    
Minimum Humidity 58    
Precipitation  
Precipitation 0.15 in - - ()
Sea Level Pressure  
Sea Level Pressure 29.96 in    
Wind  
Wind Speed 4 mph (SE)    
Max Wind Speed 22 mph    
Max Gust Speed 29 mph    
Visibility 4 miles    
Events Rain    
Averages and records for this station are not official NWS values.
T = Trace of Precipitation, MM = Missing Value Source: NWS Daily Summary

Daily Weather History Graph

Daily Weather History Graph

Search for Another Location

Airport:

Trip Planner

Search our weather history database for the weather conditions in past years. The results will help you decide how hot, cold, wet, or windy it might be!

Date:

Astronomy

Jul. 13, 2013 Rise Set
Actual Time 6:38 AM EDT 8:28 PM EDT
Civil Twilight 6:11 AM EDT 8:55 PM EDT
Nautical Twilight 5:39 AM EDT 9:27 PM EDT
Astronomical Twilight 5:05 AM EDT 10:01 PM EDT
Moon 11:24 AM EDT (7/13) 11:39 PM EDT (7/13)
Length of Visible Light 14h 43m
Length of Day
13h 50m
Waxing Crescent, 25% of the Moon is Illuminated
Jul 13
Waxing Crescent
Jul 15
First Quarter
Jul 22
Full
Jul 29
Last Quarter
Aug 6
New

Hourly Weather History & Observations

Time (EDT) Temp. Heat Index Dew Point Humidity Pressure Visibility Wind Dir Wind Speed Gust Speed Precip Events Conditions
12:15 AM 77.0 °F - 73.4 °F 89% 29.95 in 5.0 mi Calm Calm - N/A   Mist
12:35 AM 77.0 °F - 73.4 °F 89% 29.96 in 6.0 mi WSW 9.2 mph - 0.01 in   Light Drizzle
12:55 AM 73.4 °F - 71.6 °F 94% 29.95 in 3.0 mi SSE 3.5 mph - 0.01 in   Mist
1:15 AM 73.4 °F - 71.6 °F 94% 29.95 in 5.0 mi East 3.5 mph - 0.01 in   Mist
1:35 AM 73.4 °F - 71.6 °F 94% 29.94 in 3.0 mi Calm Calm - 0.01 in   Mist
1:55 AM 73.4 °F - 71.6 °F 94% 29.93 in 3.0 mi Calm Calm - 0.01 in   Mist
2:15 AM 73.4 °F - 71.6 °F 94% 29.92 in 7.0 mi Calm Calm - 0.01 in   Unknown
2:35 AM 73.4 °F - 73.4 °F 100% 29.92 in 4.0 mi Calm Calm - 0.01 in   Mist
2:55 AM 73.4 °F - 73.4 °F 100% 29.92 in 5.0 mi South 4.6 mph - 0.01 in   Mist
3:15 AM 73.4 °F - 73.4 °F 100% 29.92 in 5.0 mi SSE 4.6 mph - 0.01 in   Mist
3:35 AM 73.4 °F - 73.4 °F 100% 29.92 in 3.0 mi Calm Calm - 0.01 in   Mist
3:55 AM 73.4 °F - 73.4 °F 100% 29.93 in 3.0 mi SSE 4.6 mph - 0.01 in   Mist
4:15 AM 73.4 °F - 73.4 °F 100% 29.93 in 3.0 mi South 3.5 mph - 0.01 in   Mist
4:35 AM 73.4 °F - 73.4 °F 100% 29.93 in 3.0 mi South 4.6 mph - 0.01 in   Mist
4:55 AM 73.4 °F - 73.4 °F 100% 29.94 in 5.0 mi South 4.6 mph - 0.01 in   Mist
5:15 AM 73.4 °F - 71.6 °F 94% 29.93 in 5.0 mi SSE 5.8 mph - N/A   Mist
5:35 AM 73.4 °F - 71.6 °F 94% 29.94 in 4.0 mi SE 4.6 mph - 0.01 in   Mist
5:55 AM 73.4 °F - 71.6 °F 94% 29.94 in 4.0 mi SE 4.6 mph - 0.01 in   Mist
6:15 AM 73.4 °F - 71.6 °F 94% 29.94 in 3.0 mi South 4.6 mph - N/A   Mist
6:35 AM 73.4 °F - 71.6 °F 94% 29.93 in 2.0 mi SE 3.5 mph - N/A   Mist
6:55 AM 73.4 °F - 71.6 °F 94% 29.93 in 2.0 mi SE 4.6 mph - N/A   Mist
7:15 AM 73.4 °F - 71.6 °F 94% 29.94 in 2.5 mi SSE 3.5 mph - 0.01 in   Mist
7:35 AM 73.4 °F - 71.6 °F 94% 29.94 in 3.0 mi Calm Calm - 0.01 in   Mist
7:55 AM 75.2 °F - 73.4 °F 94% 29.94 in 3.0 mi Calm Calm - 0.01 in   Mist
8:15 AM 75.2 °F - 73.4 °F 94% 29.94 in 3.0 mi Calm Calm - N/A   Mist
8:35 AM 78.8 °F - 73.4 °F 83% 29.95 in 4.0 mi SE 5.8 mph - N/A   Haze
8:55 AM 78.8 °F - 73.4 °F 83% 29.96 in 5.0 mi SSE 5.8 mph - 0.01 in   Haze
9:15 AM 80.6 °F 85.4 °F 73.4 °F 79% 29.97 in 3.0 mi South 4.6 mph - N/A   Haze
9:35 AM 82.4 °F 88.2 °F 73.4 °F 74% 29.98 in 5.0 mi ESE 8.1 mph - N/A   Haze
9:55 AM 82.4 °F 88.2 °F 73.4 °F 74% 29.98 in 7.0 mi South 4.6 mph - N/A   Unknown
10:15 AM 82.4 °F 88.2 °F 73.4 °F 74% 29.98 in 6.0 mi SSE 6.9 mph - N/A   Haze
10:35 AM 84.2 °F 90.9 °F 73.4 °F 70% 29.98 in 7.0 mi SSE 3.5 mph - 0.01 in   Unknown
10:55 AM 84.2 °F 89.6 °F 71.6 °F 66% 29.98 in 3.0 mi SSE 6.9 mph - 0.01 in   Haze
11:15 AM 84.2 °F 90.9 °F 73.4 °F 70% 29.98 in 5.0 mi ESE 3.5 mph - N/A   Haze
11:35 AM 86.0 °F 93.4 °F 73.4 °F 66% 29.98 in 5.0 mi SE 6.9 mph - N/A   Haze
11:55 AM 84.2 °F 90.9 °F 73.4 °F 70% 29.97 in 5.0 mi ESE 6.9 mph - N/A   Haze
12:15 PM 86.0 °F 93.4 °F 73.4 °F 66% 29.97 in 5.0 mi SE 6.9 mph - 0.01 in   Haze
12:35 PM 86.0 °F 91.8 °F 71.6 °F 62% 29.96 in 3.0 mi South 8.1 mph - 0.01 in   Haze
12:55 PM 87.8 °F 95.6 °F 73.4 °F 62% 29.96 in 6.0 mi ESE 11.5 mph - 0.01 in   Haze
1:15 PM 87.8 °F 93.8 °F 71.6 °F 58% 29.95 in 4.0 mi SSE 5.8 mph - N/A   Haze
1:35 PM 87.8 °F 93.8 °F 71.6 °F 58% 29.95 in 4.0 mi SSE 8.1 mph - N/A   Haze
1:55 PM 87.8 °F 93.8 °F 71.6 °F 58% 29.94 in 6.0 mi SE 10.4 mph - N/A   Haze
2:15 PM 87.8 °F 93.8 °F 71.6 °F 58% 29.93 in 4.0 mi ESE 10.4 mph - N/A   Haze
2:35 PM 78.8 °F - 71.6 °F 78% 29.95 in 2.5 mi SW 13.8 mph 25.3 mph 0.01 in   Light Drizzle
2:55 PM 73.4 °F - 71.6 °F 94% 29.96 in 1.0 mi SSW 21.9 mph 28.8 mph 0.01 in Rain Heavy Rain
3:15 PM 71.6 °F - 71.6 °F 100% 30.01 in 0.2 mi SSW 10.4 mph - N/A Rain Heavy Rain
3:35 PM 71.6 °F - 71.6 °F 100% 29.98 in 0.5 mi West 6.9 mph - N/A Rain Heavy Rain
3:55 PM 71.6 °F - 71.6 °F 100% 29.97 in 1.8 mi South 4.6 mph - N/A Rain Light Rain
4:15 PM 73.4 °F - 71.6 °F 94% 29.96 in 2.5 mi Calm Calm - N/A Rain Light Rain
4:35 PM 73.4 °F - 71.6 °F 94% 29.96 in 2.0 mi Calm Calm - 0.01 in   Light Drizzle
4:55 PM 75.2 °F - 73.4 °F 94% 29.98 in 4.0 mi NW 3.5 mph - 0.01 in   Mist
5:15 PM 75.2 °F - 71.6 °F 89% 29.99 in 5.0 mi ENE 5.8 mph - N/A   Mist
5:35 PM 75.2 °F - 73.4 °F 94% 29.99 in 5.0 mi ENE 6.9 mph - N/A   Mist
5:55 PM 75.2 °F - 73.4 °F 94% 29.99 in 5.0 mi NE 5.8 mph - N/A Rain Light Rain
6:15 PM 73.4 °F - 73.4 °F 100% 29.99 in 4.0 mi ENE 6.9 mph - 0.01 in   Light Drizzle
6:35 PM 73.4 °F - 73.4 °F 100% 29.97 in 5.0 mi ENE 8.1 mph - 0.01 in   Mist
6:55 PM 73.4 °F - 71.6 °F 94% 29.97 in 3.0 mi NE 4.6 mph - 0.01 in   Mist
7:15 PM 73.4 °F - 71.6 °F 94% 29.96 in 5.0 mi NNE 6.9 mph - N/A   Mist
7:35 PM 73.4 °F - 71.6 °F 94% 29.96 in 5.0 mi NNE 5.8 mph - N/A   Mist
7:55 PM 73.4 °F - 71.6 °F 94% 29.97 in 5.0 mi Calm Calm - 0.01 in   Mist
8:15 PM 73.4 °F - 71.6 °F 94% 29.98 in 5.0 mi NE 3.5 mph - N/A   Mist
8:35 PM 73.4 °F - 71.6 °F 94% 29.97 in 5.0 mi ENE 4.6 mph - N/A   Mist
8:55 PM 73.4 °F - 71.6 °F 94% 29.98 in 5.0 mi Calm Calm - N/A   Mist
9:15 PM 73.4 °F - 71.6 °F 94% 29.98 in 6.0 mi ENE 5.8 mph - N/A   Mist
9:35 PM 73.4 °F - 71.6 °F 94% 29.99 in 6.0 mi East 6.9 mph - N/A   Mist
9:55 PM 73.4 °F - 71.6 °F 94% 29.99 in 5.0 mi ENE 4.6 mph - N/A   Mist
10:15 PM 73.4 °F - 71.6 °F 94% 29.99 in 5.0 mi East 5.8 mph - N/A   Mist
10:35 PM 73.4 °F - 71.6 °F 94% 30.00 in 4.0 mi East 5.8 mph - N/A   Mist
10:55 PM 73.4 °F - 71.6 °F 94% 30.00 in 4.0 mi East 3.5 mph - N/A   Mist
11:15 PM 73.4 °F - 71.6 °F 94% 30.01 in 6.0 mi Calm Calm - 0.01 in   Mist
11:35 PM 73.4 °F - 71.6 °F 94% 30.01 in 3.0 mi East 3.5 mph - 0.01 in   Mist
11:55 PM 73.4 °F - 71.6 °F 94% 30.01 in 3.0 mi Calm Calm - 0.01 in   Mist